Weather History for Bentonville, AR

Change the Weather History Date:

Monday, November 21, 2011

  Actual Average Record
Temperature  
Mean Temperature 44 °F -  
Max Temperature 48 °F 57 °F 78 °F (1989)
Min Temperature 39 °F 33 °F 13 °F (1964)
Degree Days  
Heating Degree Days 22    
Moisture  
Dew Point 42 °F    
Average Humidity 92    
Maximum Humidity 100    
Minimum Humidity 87    
Precipitation  
Precipitation 0.71 in - - ()
Sea Level Pressure  
Sea Level Pressure 30.09 in    
Wind  
Wind Speed 5 mph (NNE)    
Max Wind Speed 13 mph    
Max Gust Speed 21 mph    
Visibility 4 miles    
Events Thunderstorm    
Averages and records for this station are not official NWS values.
T = Trace of Precipitation, MM = Missing Value Source: NWS Daily Summary

Daily Weather History Graph

Daily Weather History Graph

Search for Another Location

Airport:

Trip Planner

Search our weather history database for the weather conditions in past years. The results will help you decide how hot, cold, wet, or windy it might be!

Date:

Astronomy

Nov. 21, 2011 Rise Set
Actual Time 6:59 AM CST 5:05 PM CST
Civil Twilight 6:32 AM CST 5:32 PM CST
Nautical Twilight 6:00 AM CST 6:04 PM CST
Astronomical Twilight 5:30 AM CST 6:35 PM CST
Moon 2:45 AM CST (11/21) 2:23 PM CST (11/21)
Length of Visible Light 11h 00m
Length of Day
10h 05m
Waning Crescent, 17% of the Moon is Illuminated
Nov 21
Waning Crescent
Nov 25
New
Dec 2
First Quarter
Dec 10
Full
Dec 17
Last Quarter

Hourly Weather History & Observations

Time (CST) Temp. Windchill Dew Point Humidity Pressure Visibility Wind Dir Wind Speed Gust Speed Precip Events Conditions
12:15 AM 42.8 °F 39.3 °F 39.2 °F 87% 30.12 in 8.0 mi North 5.8 mph - N/A   Overcast
12:35 AM 42.8 °F 38.6 °F 39.2 °F 87% 30.12 in 5.0 mi North 6.9 mph - N/A   Overcast
12:55 AM 42.8 °F - 39.2 °F 87% 30.12 in 5.0 mi Calm Calm - 0.02 in   Overcast
1:15 AM 42.8 °F 40.1 °F 39.2 °F 87% 30.11 in 7.0 mi NE 4.6 mph - 0.03 in   Overcast
1:35 AM 42.8 °F 39.3 °F 39.2 °F 87% 30.11 in 7.0 mi North 5.8 mph - 0.15 in   Overcast
2:35 AM 41.0 °F 37.1 °F 39.2 °F 93% 30.10 in 3.0 mi NNE 5.8 mph - N/A   Overcast
2:55 AM 42.8 °F 38.6 °F 39.2 °F 87% 30.10 in 5.0 mi North 6.9 mph - N/A   Overcast
3:15 AM 42.8 °F - 39.2 °F 87% 30.11 in 8.0 mi Calm Calm - N/A Thunderstorm Overcast
3:35 AM 41.0 °F 39.0 °F 39.2 °F 93% 30.11 in 8.0 mi NNW 3.5 mph - N/A   Overcast
3:55 AM 41.0 °F 35.8 °F 39.2 °F 93% 30.11 in 10.0 mi North 8.1 mph - N/A   Overcast
4:15 AM 41.0 °F 37.1 °F 39.2 °F 93% 30.12 in 8.0 mi NNW 5.8 mph - N/A   Overcast
4:35 AM 41.0 °F 38.0 °F 39.2 °F 93% 30.13 in 5.0 mi NNW 4.6 mph - 0.01 in   Overcast
4:55 AM 41.0 °F 36.4 °F 37.4 °F 87% 30.14 in 5.0 mi North 6.9 mph - 0.01 in   Overcast
5:15 AM 41.0 °F 35.8 °F 37.4 °F 87% 30.13 in 5.0 mi North 8.1 mph - N/A   Overcast
5:35 AM 39.2 °F 35.0 °F 37.4 °F 93% 30.14 in 5.0 mi North 5.8 mph - N/A   Overcast
5:55 AM 39.2 °F 34.2 °F 37.4 °F 93% 30.14 in 5.0 mi NNE 6.9 mph - N/A   Overcast
6:15 AM 41.0 °F 38.0 °F 37.4 °F 87% 30.16 in 3.0 mi North 4.6 mph - N/A   Overcast
6:35 AM 41.0 °F 36.4 °F 37.4 °F 87% 30.16 in 3.0 mi North 6.9 mph - N/A   Overcast
6:55 AM 41.0 °F 38.0 °F 39.2 °F 93% 30.16 in 2.5 mi NNE 4.6 mph - N/A   Overcast
7:15 AM 41.0 °F 39.0 °F 39.2 °F 93% 30.16 in 1.8 mi NNE 3.5 mph - N/A   Overcast
7:35 AM 41.0 °F 39.0 °F 39.2 °F 93% 30.16 in 1.2 mi North 3.5 mph - N/A   Overcast
7:55 AM 41.0 °F 38.0 °F 39.2 °F 93% 30.17 in 1.0 mi NNE 4.6 mph - N/A   Overcast
8:15 AM 41.0 °F 37.1 °F 39.2 °F 93% 30.17 in 1.2 mi NNE 5.8 mph - N/A   Overcast
8:35 AM 41.0 °F 39.0 °F 39.2 °F 93% 30.17 in 1.2 mi North 3.5 mph - N/A   Overcast
8:55 AM 42.8 °F 39.3 °F 39.2 °F 87% 30.17 in 1.5 mi NNE 5.8 mph - N/A   Overcast
9:15 AM 42.8 °F 39.3 °F 39.2 °F 87% 30.17 in 1.8 mi NNE 5.8 mph - N/A   Overcast
9:35 AM 42.8 °F 40.1 °F 39.2 °F 87% 30.17 in 1.5 mi NNE 4.6 mph - N/A   Overcast
9:55 AM 42.8 °F 40.1 °F 39.2 °F 87% 30.18 in 1.8 mi North 4.6 mph - N/A   Overcast
10:15 AM 42.8 °F 41.1 °F 39.2 °F 87% 30.16 in 1.5 mi North 3.5 mph - N/A   Overcast
10:35 AM 42.8 °F - 41.0 °F 93% 30.17 in 1.5 mi Calm Calm - N/A   Overcast
10:55 AM 42.8 °F 40.1 °F 41.0 °F 93% 30.16 in 1.5 mi North 4.6 mph - N/A   Overcast
11:15 AM 42.8 °F 41.1 °F 42.8 °F 100% 30.16 in 1.5 mi NNE 3.5 mph - N/A   Overcast
11:35 AM 44.6 °F 43.1 °F 42.8 °F 93% 30.14 in 1.5 mi NNE 3.5 mph - N/A   Overcast
12:15 PM 44.6 °F - 42.8 °F 93% 30.12 in 2.0 mi Calm Calm - N/A   Overcast
12:35 PM 44.6 °F 42.2 °F 42.8 °F 93% 30.10 in 1.5 mi NE 4.6 mph - N/A   Overcast
12:55 PM 44.6 °F 43.1 °F 42.8 °F 93% 30.09 in 2.5 mi ENE 3.5 mph - N/A   Overcast
1:15 PM 46.4 °F 45.2 °F 44.6 °F 93% 30.07 in 1.8 mi NE 3.5 mph - N/A   Overcast
1:35 PM 46.4 °F 44.3 °F 44.6 °F 93% 30.06 in 1.5 mi ENE 4.6 mph - N/A   Overcast
1:55 PM 46.4 °F 45.2 °F 44.6 °F 93% 30.05 in 1.5 mi East 3.5 mph - N/A   Overcast
2:15 PM 46.4 °F - 44.6 °F 93% 30.04 in 1.2 mi Calm Calm - N/A   Overcast
2:35 PM 48.2 °F - 44.6 °F 87% 30.04 in 1.8 mi ESE 3.5 mph - N/A   Overcast
2:55 PM 48.2 °F - 46.4 °F 93% 30.03 in 1.8 mi ENE 3.5 mph - N/A   Overcast
3:15 PM 48.2 °F - 46.4 °F 93% 30.03 in 1.8 mi Calm Calm - N/A   Overcast
3:35 PM 48.2 °F - 46.4 °F 93% 30.03 in 1.5 mi North 4.6 mph - N/A   Overcast
3:55 PM 46.4 °F 42.9 °F 46.4 °F 100% 30.02 in 0.5 mi North 6.9 mph - N/A   Overcast
4:15 PM 46.4 °F 42.4 °F 44.6 °F 93% 30.03 in 0.5 mi North 8.1 mph - N/A   Overcast
4:55 PM 46.4 °F 43.5 °F 44.6 °F 93% 30.02 in 0.5 mi NNE 5.8 mph - N/A   Overcast
5:15 PM 46.4 °F 41.9 °F 44.6 °F 93% 29.98 in 1.0 mi NE 9.2 mph - N/A   Overcast
5:35 PM 46.4 °F 41.9 °F 44.6 °F 93% 29.98 in 1.0 mi NE 9.2 mph - N/A   Overcast
6:15 PM 46.4 °F 41.9 °F 44.6 °F 93% 30.00 in 3.0 mi East 9.2 mph - N/A   Overcast
6:35 PM 46.4 °F 44.3 °F 44.6 °F 93% 30.01 in 2.5 mi ENE 4.6 mph - N/A   Overcast
6:55 PM 46.4 °F 45.2 °F 46.4 °F 100% 30.00 in 1.8 mi East 3.5 mph - N/A Thunderstorm Overcast
7:15 PM 46.4 °F 42.4 °F 44.6 °F 93% 29.99 in 5.0 mi East 8.1 mph - N/A   Overcast
7:35 PM 46.4 °F 41.1 °F 44.6 °F 93% 29.95 in 6.0 mi ENE 11.5 mph - N/A   Overcast
7:55 PM 46.4 °F 42.9 °F 44.6 °F 93% 29.95 in 10.0 mi ENE 6.9 mph - 0.21 in   Overcast
8:15 PM 46.4 °F 40.7 °F 46.4 °F 100% 29.93 in 10.0 mi East 12.7 mph 20.7 mph 0.07 in   Overcast
8:35 PM 48.2 °F - 46.4 °F 93% 29.94 in 9.0 mi East 8.1 mph - 0.17 in   Mostly Cloudy
8:55 PM 48.2 °F - 46.4 °F 93% 29.94 in 8.0 mi East 6.9 mph - 0.32 in Thunderstorm Overcast
9:15 PM 48.2 °F - 46.4 °F 93% 29.94 in 10.0 mi NNE 10.4 mph - 0.12 in   Overcast
9:35 PM 48.2 °F - 46.4 °F 93% 29.90 in 10.0 mi NE 12.7 mph - 0.27 in   Overcast
9:55 PM 48.2 °F - 46.4 °F 93% 29.90 in 10.0 mi NE 9.2 mph - 0.32 in   Overcast
10:15 PM 48.2 °F - 48.2 °F 100% 29.87 in 10.0 mi ENE 10.4 mph - 0.10 in   Overcast
10:55 PM 50.0 °F - 48.2 °F 94% 29.90 in 10.0 mi NNW 10.4 mph - 0.29 in   Overcast
11:35 PM 48.2 °F - 44.6 °F 87% 29.96 in 7.0 mi NNW 12.7 mph 23.0 mph 0.21 in   Overcast
11:55 PM 46.4 °F 40.4 °F 44.6 °F 93% 29.89 in 10.0 mi NNE 13.8 mph 19.6 mph 0.22 in   Overcast